| time (UTC) | temp F | wind direction | speed MPH | gust MPH | rain 1hr in | rain 24hr in | rain mn in | humidity % | barometer mb |
| 20260904161803 | 72 | 121 | 4.0 | 4.0 | 0.00 | 0.00 | 0.00 | 69 | 1012.4 |
| 20260904161305 | 71 | 248 | 1.0 | 3.0 | 0.00 | 0.00 | 0.00 | 74 | 1012.4 |
| 20260904160258 | 71 | 60 | 2.0 | 3.0 | 0.00 | 0.00 | 0.00 | 74 | 1012.4 |
| 20260904155757 | 70 | 266 | 1.0 | 4.0 | 0.00 | 0.00 | 0.00 | 77 | 1012.4 |
| 20260904155257 | 69 | 222 | 1.0 | 4.0 | 0.00 | 0.00 | 0.00 | 76 | 1012.4 |
| 20260904154256 | 69 | 289 | 1.0 | 4.0 | 0.00 | 0.00 | 0.00 | 77 | 1012.4 |
| 20260904153756 | 69 | 137 | 2.0 | 4.0 | 0.00 | 0.00 | 0.00 | 77 | 1012.4 |
| 20260904153240 | 69 | 167 | 2.0 | 4.0 | 0.00 | 0.00 | 0.00 | 77 | 1012.4 |
| 20260904152728 | 69 | 158 | 3.0 | 4.0 | 0.00 | 0.00 | 0.00 | 76 | 1012.4 |
| 20260904152204 | 69 | 7 | 1.0 | 4.0 | 0.00 | 0.00 | 0.00 | 78 | 1012.4 |
| 20260904151703 | 69 | 35 | 4.0 | 4.0 | 0.00 | 0.00 | 0.00 | 77 | 1012.4 |
| 20260904151203 | 69 | 35 | 2.0 | 3.0 | 0.00 | 0.00 | 0.00 | 77 | 1012.4 |
| 20260904145702 | 70 | 9 | 0.0 | 3.0 | 0.00 | 0.00 | 0.00 | 77 | 1012.4 |
| 20260904145201 | 69 | 346 | 0.0 | 3.0 | 0.00 | 0.00 | 0.00 | 79 | 1012.1 |
| 20260904144701 | 68 | 1 | 1.0 | 2.0 | 0.00 | 0.00 | 0.00 | 81 | 1012.1 |
| 20260904144157 | 67 | 21 | 1.0 | 3.0 | 0.00 | 0.00 | 0.00 | 83 | 1012.1 |
| 20260904143657 | 66 | 25 | 1.0 | 3.0 | 0.00 | 0.00 | 0.00 | 83 | 1012.1 |
| 20260904143157 | 66 | 341 | 1.0 | 1.0 | 0.00 | 0.00 | 0.00 | 84 | 1012.1 |
| 20260904142649 | 66 | 330 | 1.0 | 1.0 | 0.00 | 0.00 | 0.00 | 84 | 1011.8 |
| 20260904142136 | 65 | 331 | 1.0 | 2.0 | 0.00 | 0.00 | 0.00 | 84 | 1011.8 |
| 20260904141604 | 65 | 330 | 1.0 | 2.0 | 0.00 | 0.00 | 0.00 | 84 | 1011.8 |
| 20260904141057 | 65 | 347 | 1.0 | 2.0 | 0.00 | 0.00 | 0.00 | 85 | 1011.8 |
| 20260904140557 | 65 | 359 | 2.0 | 2.0 | 0.00 | 0.00 | 0.00 | 85 | 1011.8 |
| 20260904135536 | 65 | 8 | 2.0 | 2.0 | 0.00 | 0.00 | 0.00 | 85 | 1011.8 |
| 20260904135029 | 65 | 356 | 1.0 | 3.0 | 0.00 | 0.00 | 0.00 | 85 | 1011.8 |
| 20260904134529 | 65 | 343 | 1.0 | 2.0 | 0.00 | 0.00 | 0.00 | 85 | 1011.8 |
| 20260904133957 | 65 | 334 | 0.0 | 1.0 | 0.00 | 0.00 | 0.00 | 85 | 1011.4 |
| 20260904133447 | 65 | 331 | 0.0 | 2.0 | 0.00 | 0.00 | 0.00 | 85 | 1011.4 |
| 20260904132930 | 65 | 341 | 0.0 | 2.0 | 0.00 | 0.00 | 0.00 | 85 | 1011.4 |
| 20260904131838 | 65 | 352 | 1.0 | 2.0 | 0.00 | 0.00 | 0.00 | 85 | 1011.4 |
| 20260904130837 | 65 | 347 | 1.0 | 2.0 | 0.00 | 0.00 | 0.00 | 85 | 1011.4 |
| 20260904130329 | 65 | 10 | 2.0 | 2.0 | 0.00 | 0.00 | 0.00 | 84 | 1011.4 |
| 20260904125829 | 66 | 8 | 1.0 | 2.0 | 0.00 | 0.00 | 0.00 | 84 | 1011.4 |
| 20260904125257 | 66 | 346 | 0.0 | 2.0 | 0.00 | 0.00 | 0.00 | 84 | 1011.4 |
| 20260904124758 | 66 | 340 | 1.0 | 2.0 | 0.00 | 0.00 | 0.00 | 84 | 1011.4 |
| 20260904124237 | 66 | 1 | 1.0 | 2.0 | 0.00 | 0.00 | 0.00 | 85 | 1011.4 |
| 20260904123236 | 65 | 9 | 1.0 | 2.0 | 0.00 | 0.00 | 0.00 | 85 | 1011.4 |
| 20260904122203 | 65 | 346 | 1.0 | 1.0 | 0.00 | 0.00 | 0.00 | 86 | 1011.1 |
| 20260904121703 | 65 | 346 | 0.0 | 1.0 | 0.00 | 0.00 | 0.00 | 85 | 1011.1 |
| 20260904121150 | 65 | 346 | 1.0 | 1.0 | 0.00 | 0.00 | 0.00 | 85 | 1011.1 |
| 20260904120636 | 65 | 346 | 1.0 | 1.0 | 0.00 | 0.00 | 0.00 | 86 | 1011.4 |
| 20260904120129 | 65 | 346 | 1.0 | 1.0 | 0.00 | 0.00 | 0.00 | 86 | 1011.1 |
| 20260904115558 | 65 | 346 | 1.0 | 1.0 | 0.00 | 0.00 | 0.00 | 86 | 1011.1 |
| 20260904114557 | 65 | 345 | 0.0 | 2.0 | 0.00 | 0.00 | 0.00 | 86 | 1011.4 |
| 20260904114048 | 64 | 343 | 0.0 | 2.0 | 0.00 | 0.00 | 0.00 | 86 | 1011.1 |
| 20260904113548 | 64 | 338 | 1.0 | 2.0 | 0.00 | 0.00 | 0.00 | 87 | 1011.4 |
| 20260904113036 | 64 | 337 | 0.0 | 2.0 | 0.00 | 0.00 | 0.00 | 86 | 1011.1 |
| 20260904112504 | 64 | 343 | 1.0 | 2.0 | 0.00 | 0.00 | 0.00 | 87 | 1011.1 |
| 20260904112004 | 64 | 345 | 0.0 | 2.0 | 0.00 | 0.00 | 0.00 | 87 | 1011.1 |
| 20260904111504 | 63 | 353 | 1.0 | 2.0 | 0.00 | 0.00 | 0.00 | 87 | 1011.1 |
| 20260904110956 | 63 | 350 | 1.0 | 2.0 | 0.00 | 0.00 | 0.00 | 86 | 1011.1 |
| 20260904110437 | 64 | 346 | 1.0 | 2.0 | 0.00 | 0.00 | 0.00 | 86 | 1011.4 |
| 20260904105929 | 64 | 347 | 1.0 | 2.0 | 0.00 | 0.00 | 0.00 | 86 | 1011.4 |
| 20260904105429 | 63 | 346 | 1.0 | 2.0 | 0.00 | 0.00 | 0.00 | 86 | 1011.4 |
| 20260904104909 | 63 | 349 | 0.0 | 2.0 | 0.00 | 0.00 | 0.00 | 86 | 1011.4 |
| 20260904104402 | 63 | 347 | 1.0 | 2.0 | 0.00 | 0.00 | 0.00 | 86 | 1011.4 |
| 20260904103902 | 63 | 348 | 0.0 | 2.0 | 0.00 | 0.00 | 0.00 | 86 | 1011.1 |
| 20260904102847 | 63 | 347 | 1.0 | 1.0 | 0.00 | 0.00 | 0.00 | 86 | 1011.1 |
| 20260904102348 | 63 | 347 | 1.0 | 1.0 | 0.00 | 0.00 | 0.00 | 86 | 1011.1 |
| 20260904101836 | 63 | 347 | 0.0 | 2.0 | 0.00 | 0.00 | 0.00 | 86 | 1011.1 |
| 20260904101329 | 63 | 6 | 1.0 | 2.0 | 0.00 | 0.00 | 0.00 | 86 | 1011.1 |
| 20260904100758 | 63 | 324 | 1.0 | 2.0 | 0.00 | 0.00 | 0.00 | 86 | 1011.1 |
| 20260904100250 | 63 | 335 | 0.0 | 2.0 | 0.00 | 0.00 | 0.00 | 86 | 1011.1 |
| 20260904095736 | 63 | 330 | 1.0 | 1.0 | 0.00 | 0.00 | 0.00 | 86 | 1011.1 |
| 20260904095203 | 63 | 331 | 1.0 | 1.0 | 0.00 | 0.00 | 0.00 | 86 | 1011.1 |
| 20260904094703 | 63 | 334 | 1.0 | 1.0 | 0.00 | 0.00 | 0.00 | 86 | 1011.1 |
| 20260904094204 | 63 | 326 | 0.0 | 0.0 | 0.00 | 0.00 | 0.00 | 86 | 1011.1 |
| 20260904093704 | 63 | 326 | 0.0 | 1.0 | 0.00 | 0.00 | 0.00 | 86 | 1011.1 |
| 20260904093158 | 63 | 326 | 0.0 | 1.0 | 0.00 | 0.00 | 0.00 | 86 | 1011.1 |
| 20260904092657 | 63 | 326 | 1.0 | 2.0 | 0.00 | 0.00 | 0.00 | 86 | 1011.1 |
| 20260904091647 | 63 | 335 | 0.0 | 2.0 | 0.00 | 0.00 | 0.00 | 85 | 1011.1 |
| 20260904090604 | 63 | 335 | 0.0 | 1.0 | 0.00 | 0.00 | 0.00 | 85 | 1011.1 |
| 20260904090104 | 64 | 335 | 1.0 | 1.0 | 0.00 | 0.00 | 0.00 | 85 | 1011.1 |
| 20260904085550 | 64 | 335 | 1.0 | 1.0 | 0.00 | 0.00 | 0.00 | 85 | 1011.1 |
| 20260904085049 | 64 | 333 | 0.0 | 1.0 | 0.00 | 0.00 | 0.00 | 85 | 1011.1 |
| 20260904084035 | 64 | 334 | 0.0 | 1.0 | 0.00 | 0.00 | 0.00 | 85 | 1011.4 |
| 20260904083503 | 64 | 333 | 0.0 | 1.0 | 0.00 | 0.00 | 0.00 | 85 | 1011.1 |
| 20260904081950 | 64 | 332 | 1.0 | 1.0 | 0.00 | 0.00 | 0.00 | 84 | 1011.1 |
| 20260904081435 | 64 | 328 | 0.0 | 2.0 | 0.00 | 0.00 | 0.00 | 84 | 1011.1 |
| 20260904080411 | 64 | 326 | 1.0 | 2.0 | 0.00 | 0.00 | 0.00 | 83 | 1011.1 |
| 20260904075904 | 64 | 317 | 0.0 | 2.0 | 0.00 | 0.00 | 0.00 | 83 | 1011.4 |
| 20260904075404 | 64 | 339 | 1.0 | 2.0 | 0.00 | 0.00 | 0.00 | 83 | 1011.4 |
| 20260904074903 | 64 | 8 | 1.0 | 2.0 | 0.00 | 0.00 | 0.00 | 83 | 1011.4 |
| 20260904074358 | 64 | 323 | 1.0 | 1.0 | 0.00 | 0.00 | 0.00 | 83 | 1011.4 |
| 20260904073835 | 64 | 325 | 0.0 | 1.0 | 0.00 | 0.00 | 0.00 | 83 | 1011.4 |
| 20260904073329 | 64 | 326 | 0.0 | 1.0 | 0.00 | 0.00 | 0.00 | 83 | 1011.4 |
| 20260904072828 | 64 | 322 | 1.0 | 2.0 | 0.00 | 0.00 | 0.00 | 83 | 1011.4 |
| 20260904071829 | 64 | 328 | 1.0 | 2.0 | 0.00 | 0.00 | 0.00 | 83 | 1011.4 |
| 20260904071304 | 65 | 327 | 1.0 | 2.0 | 0.00 | 0.00 | 0.00 | 83 | 1011.1 |
| 20260904070758 | 65 | 326 | 1.0 | 2.0 | 0.00 | 0.00 | 0.00 | 83 | 1011.1 |
| 20260904070256 | 65 | 327 | 1.0 | 2.0 | 0.00 | 0.00 | 0.00 | 83 | 1011.1 |
| 20260904065749 | 65 | 330 | 1.0 | 2.0 | 0.00 | 0.00 | 0.00 | 83 | 1011.1 |
| 20260904065241 | 65 | 332 | 1.0 | 2.0 | 0.00 | 0.00 | 0.00 | 82 | 1011.1 |
| 20260904064736 | 65 | 333 | 0.0 | 1.0 | 0.00 | 0.00 | 0.00 | 82 | 1011.1 |
| 20260904064229 | 66 | 333 | 1.0 | 2.0 | 0.00 | 0.00 | 0.00 | 82 | 1011.4 |
| 20260904063704 | 66 | 333 | 2.0 | 2.0 | 0.00 | 0.00 | 0.00 | 82 | 1011.1 |
| 20260904062636 | 66 | 326 | 0.0 | 3.0 | 0.00 | 0.00 | 0.00 | 82 | 1011.1 |
| 20260904062129 | 66 | 350 | 2.0 | 3.0 | 0.00 | 0.00 | 0.00 | 82 | 1011.1 |
| 20260904061604 | 66 | 6 | 2.0 | 2.0 | 0.00 | 0.00 | 0.00 | 82 | 1011.1 |
| 20260904061057 | 66 | 23 | 2.0 | 2.0 | 0.00 | 0.00 | 0.00 | 82 | 1011.1 |
| 20260904060536 | 66 | 334 | 0.0 | 2.0 | 0.00 | 0.00 | 0.00 | 82 | 1011.1 |
| 20260904060027 | 66 | 324 | 1.0 | 4.0 | 0.00 | 0.00 | 0.00 | 82 | 1011.1 |
| 20260904054957 | 66 | 9 | 2.0 | 3.0 | 0.00 | 0.00 | 0.00 | 82 | 1011.1 |
| 20260904054457 | 66 | 7 | 2.0 | 3.0 | 0.00 | 0.00 | 0.00 | 83 | 1011.1 |
| 20260904053957 | 66 | 346 | 1.0 | 3.0 | 0.00 | 0.00 | 0.00 | 83 | 1011.1 |
| 20260904053457 | 66 | 331 | 1.0 | 2.0 | 0.00 | 0.00 | 0.00 | 83 | 1010.7 |
| 20260904052936 | 66 | 334 | 1.0 | 1.0 | 0.00 | 0.00 | 0.00 | 83 | 1011.1 |
| 20260904052426 | 66 | 328 | 0.0 | 1.0 | 0.00 | 0.00 | 0.00 | 83 | 1011.1 |
| 20260904051905 | 66 | 328 | 1.0 | 1.0 | 0.00 | 0.00 | 0.00 | 83 | 1011.1 |
| 20260904051357 | 66 | 328 | 0.0 | 2.0 | 0.00 | 0.00 | 0.00 | 83 | 1011.1 |
| 20260904050836 | 66 | 343 | 1.0 | 2.0 | 0.00 | 0.00 | 0.00 | 83 | 1011.1 |
| 20260904050329 | 66 | 320 | 1.0 | 1.0 | 0.00 | 0.00 | 0.00 | 83 | 1011.1 |
| 20260904045804 | 66 | 316 | 1.0 | 2.0 | 0.00 | 0.00 | 0.00 | 82 | 1011.1 |
| 20260904045306 | 66 | 318 | 0.0 | 2.0 | 0.00 | 0.00 | 0.00 | 83 | 1011.1 |
| 20260904044804 | 66 | 321 | 1.0 | 2.0 | 0.00 | 0.00 | 0.00 | 82 | 1011.1 |
| 20260904044304 | 66 | 322 | 1.0 | 1.0 | 0.00 | 0.00 | 0.00 | 82 | 1011.1 |
| 20260904043741 | 66 | 323 | 1.0 | 2.0 | 0.00 | 0.00 | 0.00 | 83 | 1011.1 |
| 20260904043236 | 67 | 324 | 0.0 | 2.0 | 0.00 | 0.00 | 0.00 | 82 | 1011.1 |
| 20260904042737 | 67 | 323 | 1.0 | 2.0 | 0.00 | 0.00 | 0.00 | 83 | 1011.1 |
| 20260904041704 | 67 | 319 | 1.0 | 2.0 | 0.00 | 0.00 | 0.00 | 83 | 1011.1 |
| 20260904041204 | 67 | 282 | 1.0 | 2.0 | 0.00 | 0.00 | 0.00 | 82 | 1010.7 |
| 20260904040702 | 67 | 240 | 1.0 | 2.0 | 0.00 | 0.00 | 0.00 | 82 | 1010.7 |
| 20260904040157 | 67 | 242 | 1.0 | 2.0 | 0.00 | 0.00 | 0.00 | 82 | 1010.7 |
| 20260904035636 | 67 | 233 | 2.0 | 2.0 | 0.00 | 0.00 | 0.00 | 82 | 1010.7 |
| 20260904035129 | 67 | 267 | 0.0 | 2.0 | 0.00 | 0.00 | 0.00 | 82 | 1010.7 |
| 20260904034604 | 67 | 249 | 2.0 | 2.0 | 0.00 | 0.00 | 0.00 | 82 | 1010.7 |
| 20260904032504 | 67 | 210 | 2.0 | 2.0 | 0.00 | 0.00 | 0.00 | 82 | 1010.4 |
| 20260904031957 | 67 | 240 | 2.0 | 3.0 | 0.00 | 0.00 | 0.00 | 82 | 1010.4 |
| 20260904031436 | 68 | 254 | 1.0 | 3.0 | 0.00 | 0.00 | 0.00 | 82 | 1010.7 |
| 20260904030930 | 68 | 249 | 1.0 | 3.0 | 0.00 | 0.00 | 0.00 | 82 | 1010.4 |
| 20260904030404 | 68 | 229 | 1.0 | 3.0 | 0.00 | 0.00 | 0.00 | 81 | 1010.4 |
| 20260904025901 | 68 | 225 | 2.0 | 4.0 | 0.00 | 0.00 | 0.00 | 81 | 1010.4 |
| 20260904025357 | 68 | 281 | 1.0 | 4.0 | 0.00 | 0.00 | 0.00 | 81 | 1010.4 |
| 20260904024829 | 68 | 267 | 1.0 | 3.0 | 0.00 | 0.00 | 0.00 | 81 | 1010.4 |
| 20260904023757 | 68 | 228 | 5.0 | 6.0 | 0.00 | 0.00 | 0.00 | 80 | 1010.4 |
| 20260904023236 | 68 | 280 | 2.0 | 7.0 | 0.00 | 0.00 | 0.00 | 80 | 1010.4 |
| 20260904022729 | 68 | 264 | 4.0 | 7.0 | 0.00 | 0.00 | 0.00 | 80 | 1010.4 |
| 20260904021138 | 68 | 279 | 3.0 | 10.0 | 0.00 | 0.00 | 0.00 | 80 | 1010.4 |
| 20260904020106 | 69 | 264 | 6.0 | 9.0 | 0.00 | 0.00 | 0.00 | 79 | 1010.4 |
| 20260904015557 | 69 | 230 | 7.0 | 9.0 | 0.00 | 0.00 | 0.00 | 78 | 1010.4 |
| 20260904015038 | 70 | 250 | 3.0 | 8.0 | 0.00 | 0.00 | 0.00 | 79 | 1010.4 |
| 20260904013537 | 71 | 301 | 9.0 | 10.0 | 0.00 | 0.00 | 0.00 | 77 | 1010.4 |
| 20260904013027 | 71 | 192 | 3.0 | 10.0 | 0.00 | 0.00 | 0.00 | 78 | 1010.4 |
| 20260904012505 | 71 | 236 | 6.0 | 9.0 | 0.00 | 0.00 | 0.00 | 77 | 1010.4 |
| 20260904011949 | 71 | 266 | 5.0 | 11.0 | 0.00 | 0.00 | 0.00 | 77 | 1010.4 |
| 20260904010950 | 71 | 250 | 9.0 | 11.0 | 0.00 | 0.00 | 0.00 | 75 | 1010.4 |
| 20260904010441 | 71 | 238 | 8.0 | 11.0 | 0.00 | 0.00 | 0.00 | 74 | 1010.4 |
| 20260904005936 | 72 | 215 | 5.0 | 13.0 | 0.00 | 0.00 | 0.00 | 72 | 1010.4 |
| 20260904005432 | 72 | 168 | 9.0 | 13.0 | 0.00 | 0.00 | 0.00 | 72 | 1010.4 |
| 20260904004914 | 72 | 247 | 6.0 | 10.0 | 0.00 | 0.00 | 0.00 | 72 | 1010.7 |
| 20260904004408 | 73 | 240 | 7.0 | 10.0 | 0.00 | 0.00 | 0.00 | 72 | 1010.7 |
| 20260904003902 | 73 | 219 | 5.0 | 13.0 | 0.00 | 0.00 | 0.00 | 72 | 1010.4 |
| 20260904002848 | 72 | 249 | 7.0 | 13.0 | 0.00 | 0.00 | 0.00 | 73 | 1010.4 |
| 20260904002342 | 73 | 228 | 9.0 | 14.0 | 0.00 | 0.00 | 0.00 | 72 | 1010.7 |
| 20260904001837 | 72 | 219 | 5.0 | 14.0 | 0.00 | 0.00 | 0.00 | 73 | 1010.7 |
| 20260904000822 | 73 | 270 | 5.0 | 14.0 | 0.00 | 0.00 | 0.00 | 72 | 1010.7 |
| 20260904000318 | 72 | 245 | 6.0 | 14.0 | 0.00 | 0.00 | 0.00 | 72 | 1010.7 |
| 20260903235809 | 73 | 250 | 10.0 | 14.0 | 0.00 | 0.00 | 0.00 | 72 | 1010.7 |
| 20260903234756 | 73 | 217 | 9.0 | 16.0 | 0.00 | 0.00 | 0.00 | 71 | 1010.7 |
| 20260903234250 | 73 | 228 | 4.0 | 16.0 | 0.00 | 0.00 | 0.00 | 72 | 1010.7 |
| 20260903233743 | 73 | 225 | 6.0 | 11.0 | 0.00 | 0.00 | 0.00 | 70 | 1010.7 |
| 20260903233237 | 74 | 253 | 6.0 | 11.0 | 0.00 | 0.00 | 0.00 | 70 | 1010.7 |
| 20260903232730 | 74 | 213 | 6.0 | 13.0 | 0.00 | 0.00 | 0.00 | 70 | 1011.1 |
| 20260903232223 | 73 | 254 | 4.0 | 15.0 | 0.00 | 0.00 | 0.00 | 71 | 1011.1 |
| 20260903231211 | 73 | 200 | 8.0 | 14.0 | 0.00 | 0.00 | 0.00 | 70 | 1011.1 |
| 20260903230704 | 73 | 277 | 8.0 | 14.0 | 0.00 | 0.00 | 0.00 | 72 | 1011.1 |
| 20260903230157 | 73 | 231 | 9.0 | 14.0 | 0.00 | 0.00 | 0.00 | 72 | 1011.1 |
| 20260903225651 | 74 | 241 | 10.0 | 14.0 | 0.00 | 0.00 | 0.00 | 71 | 1011.1 |
| 20260903225144 | 74 | 238 | 11.0 | 17.0 | 0.00 | 0.00 | 0.00 | 70 | 1011.1 |
| 20260903224639 | 73 | 225 | 6.0 | 17.0 | 0.00 | 0.00 | 0.00 | 72 | 1011.4 |
| 20260903224131 | 73 | 205 | 10.0 | 15.0 | 0.00 | 0.00 | 0.00 | 71 | 1011.1 |
| 20260903223625 | 73 | 232 | 9.0 | 15.0 | 0.00 | 0.00 | 0.00 | 71 | 1011.4 |
| 20260903223118 | 73 | 265 | 9.0 | 15.0 | 0.00 | 0.00 | 0.00 | 72 | 1011.4 |
| 20260903222612 | 73 | 237 | 11.0 | 14.0 | 0.00 | 0.00 | 0.00 | 71 | 1011.4 |
| 20260903222106 | 73 | 242 | 8.0 | 15.0 | 0.00 | 0.00 | 0.00 | 70 | 1011.4 |
| 20260903221558 | 73 | 272 | 8.0 | 16.0 | 0.00 | 0.00 | 0.00 | 71 | 1011.8 |
| 20260903221054 | 73 | 252 | 6.0 | 16.0 | 0.00 | 0.00 | 0.00 | 70 | 1011.8 |
| 20260903220546 | 74 | 220 | 10.0 | 14.0 | 0.00 | 0.00 | 0.00 | 69 | 1011.8 |
| 20260903220040 | 73 | 278 | 8.0 | 15.0 | 0.00 | 0.00 | 0.00 | 70 | 1011.8 |
| 20260903215532 | 73 | 277 | 9.0 | 15.0 | 0.00 | 0.00 | 0.00 | 69 | 1011.8 |
| 20260903214520 | 74 | 294 | 8.0 | 14.0 | 0.00 | 0.00 | 0.00 | 69 | 1011.8 |
| 20260903214012 | 74 | 228 | 9.0 | 14.0 | 0.00 | 0.00 | 0.00 | 67 | 1011.8 |
| 20260903213506 | 74 | 222 | 6.0 | 11.0 | 0.00 | 0.00 | 0.00 | 68 | 1011.8 |
| 20260903213000 | 74 | 213 | 7.0 | 14.0 | 0.00 | 0.00 | 0.00 | 67 | 1011.8 |
| 20260903212454 | 74 | 247 | 6.0 | 17.0 | 0.00 | 0.00 | 0.00 | 68 | 1011.8 |
| 20260903211947 | 75 | 235 | 11.0 | 17.0 | 0.00 | 0.00 | 0.00 | 67 | 1011.8 |
| 20260903211440 | 75 | 213 | 8.0 | 13.0 | 0.00 | 0.00 | 0.00 | 65 | 1011.8 |
| 20260903210934 | 75 | 241 | 5.0 | 13.0 | 0.00 | 0.00 | 0.00 | 67 | 1011.8 |
| 20260903210427 | 75 | 287 | 7.0 | 15.0 | 0.00 | 0.00 | 0.00 | 67 | 1011.8 |
| 20260903205920 | 74 | 246 | 4.0 | 15.0 | 0.00 | 0.00 | 0.00 | 67 | 1012.1 |
| 20260903205414 | 74 | 254 | 6.0 | 14.0 | 0.00 | 0.00 | 0.00 | 67 | 1012.1 |
| 20260903204908 | 74 | 202 | 8.0 | 14.0 | 0.00 | 0.00 | 0.00 | 68 | 1012.1 |
| 20260903204401 | 74 | 251 | 5.0 | 11.0 | 0.00 | 0.00 | 0.00 | 68 | 1012.1 |
| 20260903203348 | 73 | 256 | 6.0 | 15.0 | 0.00 | 0.00 | 0.00 | 68 | 1012.1 |
| 20260903202335 | 75 | 270 | 5.0 | 16.0 | 0.00 | 0.00 | 0.00 | 65 | 1012.1 |
| 20260903201828 | 74 | 208 | 6.0 | 16.0 | 0.00 | 0.00 | 0.00 | 67 | 1012.1 |
| 20260903200815 | 74 | 247 | 10.0 | 14.0 | 0.00 | 0.00 | 0.00 | 67 | 1012.4 |
| 20260903200309 | 74 | 277 | 6.0 | 14.0 | 0.00 | 0.00 | 0.00 | 69 | 1012.4 |
| 20260903195803 | 74 | 238 | 8.0 | 13.0 | 0.00 | 0.00 | 0.00 | 68 | 1012.4 |
| 20260903195255 | 74 | 230 | 8.0 | 13.0 | 0.00 | 0.00 | 0.00 | 68 | 1012.4 |
| 20260903194243 | 74 | 235 | 5.0 | 14.0 | 0.00 | 0.00 | 0.00 | 68 | 1012.4 |
| 20260903193737 | 74 | 194 | 5.0 | 14.0 | 0.00 | 0.00 | 0.00 | 69 | 1012.4 |
| 20260903193230 | 73 | 210 | 10.0 | 14.0 | 0.00 | 0.00 | 0.00 | 70 | 1012.8 |
| 20260903192724 | 74 | 259 | 10.0 | 14.0 | 0.00 | 0.00 | 0.00 | 69 | 1012.8 |
| 20260903192216 | 73 | 231 | 8.0 | 13.0 | 0.00 | 0.00 | 0.00 | 70 | 1012.8 |
| 20260903191710 | 73 | 220 | 9.0 | 14.0 | 0.00 | 0.00 | 0.00 | 69 | 1012.8 |
| 20260903191203 | 73 | 233 | 10.0 | 14.0 | 0.00 | 0.00 | 0.00 | 69 | 1012.8 |
| 20260903185644 | 74 | 256 | 8.0 | 13.0 | 0.00 | 0.00 | 0.00 | 68 | 1013.1 |
| 20260903185140 | 74 | 306 | 6.0 | 11.0 | 0.00 | 0.00 | 0.00 | 67 | 1013.1 |
| 20260903184125 | 75 | 218 | 4.0 | 13.0 | 0.00 | 0.00 | 0.00 | 67 | 1013.1 |
| 20260903183618 | 74 | 327 | 4.0 | 13.0 | 0.00 | 0.00 | 0.00 | 68 | 1013.1 |
| 20260903183111 | 74 | 290 | 4.0 | 11.0 | 0.00 | 0.00 | 0.00 | 69 | 1013.1 |
| 20260903182605 | 75 | 226 | 4.0 | 10.0 | 0.00 | 0.00 | 0.00 | 67 | 1013.4 |
| 20260903181552 | 75 | 299 | 0.0 | 7.0 | 0.00 | 0.00 | 0.00 | 64 | 1013.4 |
| 20260903181046 | 76 | 177 | 4.0 | 10.0 | 0.00 | 0.00 | 0.00 | 64 | 1013.4 |
| 20260903180539 | 75 | 199 | 8.0 | 10.0 | 0.00 | 0.00 | 0.00 | 63 | 1013.4 |
| 20260903175526 | 77 | 181 | 4.0 | 7.0 | 0.00 | 0.00 | 0.00 | 60 | 1013.4 |
| 20260903175020 | 75 | 203 | 2.0 | 6.0 | 0.00 | 0.00 | 0.00 | 62 | 1013.4 |
| 20260903174513 | 75 | 193 | 3.0 | 9.0 | 0.00 | 0.00 | 0.00 | 63 | 1013.4 |
| 20260903173500 | 74 | 111 | 3.0 | 8.0 | 0.00 | 0.00 | 0.00 | 65 | 1013.4 |
| 20260903172954 | 74 | 199 | 3.0 | 7.0 | 0.00 | 0.00 | 0.00 | 66 | 1013.4 |
| 20260903171434 | 76 | 161 | 4.0 | 7.0 | 0.00 | 0.00 | 0.00 | 61 | 1013.4 |
| 20260903170928 | 75 | 328 | 1.0 | 6.0 | 0.00 | 0.00 | 0.00 | 63 | 1013.4 |
| 20260903170422 | 75 | 317 | 3.0 | 7.0 | 0.00 | 0.00 | 0.00 | 62 | 1013.4 |
| 20260903165914 | 73 | 189 | 1.0 | 7.0 | 0.00 | 0.00 | 0.00 | 69 | 1013.4 |
| 20260903165408 | 71 | 256 | 0.0 | 6.0 | 0.00 | 0.00 | 0.00 | 72 | 1013.4 |
| 20260903164902 | 71 | 241 | 0.0 | 7.0 | 0.00 | 0.00 | 0.00 | 73 | 1013.4 |
| 20260903164355 | 71 | 144 | 4.0 | 4.0 | 0.00 | 0.00 | 0.00 | 72 | 1013.4 |
| 20260903163849 | 72 | 139 | 3.0 | 6.0 | 0.00 | 0.00 | 0.00 | 71 | 1013.4 |
| 20260903163342 | 71 | 12 | 1.0 | 6.0 | 0.00 | 0.00 | 0.00 | 72 | 1013.4 |
| 20260903162836 | 71 | 193 | 2.0 | 6.0 | 0.00 | 0.00 | 0.00 | 72 | 1013.4 |
| 20260903162329 | 71 | 190 | 4.0 | 6.0 | 0.00 | 0.00 | 0.00 | 72 | 1013.4 |